Location: Unspecified
(50.7693°N, 0.0000°E)
Time: 20:53:01
(UTC+00:00)

deb Explorer IX - Pass Details

Date: 26 June 2019
Orbit: 539 x 1112 km, 38.8° (Epoch: 17 July)

Event Time Altitude Azimuth Distance (km) Brightness Sun altitude
Rises 15:23:44 0° 258° (WSW) 3,844 ? 42.7°
Reaches altitude 10° 15:26:48 10° 248° (WSW) 2,934 ? 42.3°
Maximum altitude 15:32:49 29° 192° (SSW) 1,919 ? 41.3°
Drops below altitude 10° 15:38:52 10° 136° (SE) 2,943 ? 40.4°
Sets 15:41:57 0° 126° (SE) 3,858 ? 39.9°
